SS-1 (55181 NORAD) Tracking and Keplerian Element Data

This shows tracking and keplerian element data for the satellite.

Feedback or suggestion? Click here.




ElementValue
Catalog55181
NameSS-1
Epoch Orbit1226
Epoch Day84.96730711
Epoch Year2023
RAAN15.7981
Inclination51.636
Eccentricity0.0010226
Argument of Perigee136.7569
Mean Anonmoly223.4233
Mean Motion15.70423958
Decay Rate0.00235334
L11 55181U 98067UY 23084.96730711 .00235334 00000+0 18303-2 0 9997
L22 55181 51.6360 15.7981 0010226 136.7569 223.4233 15.70423958 12266



Live tracking and technical data element details for SS-1 (NORAD 55181). SS-1 can be tracked NOW for your location showing map with azimuth and elevation plus other details from your city location.







IsCatalogInMostPopularTable: catalog: 55181, numindb: 12
Update: records affected: 1



GetName: 55181 SS-1

Hit Count: updated at: Mon, 27 Mar 2023 06:50:34 GMT